Powrót do katalogu

GLOBALSTAR M101

AktywnyŁącznośćLEO
NORAD 100330·PAYLOAD·🇺🇸 United States

Wystrzelony Aug 16, 2026 z Cape Canaveral Space Force Station

Loading…

Następne Przeloty (najbliższe 24 godziny)

TLE

ŚwieżeSource: Space-Track

Epoka: Sep 13, 2026, 23:48 UTC

1 A0330U 26185F   26256.99204938  .00000254  00000-0  85733-4 0  9994
2 A0330  51.9958 113.5440 0009107 325.9819  34.0553 14.63478939  4230

Śledź GLOBALSTAR M101 w czasie rzeczywistym z AllMySat

Download on the App Store